"Pseudo-MPEC" for P21lca6

Created 2021 Oct 6 1:07:49 UT using Find_Orb

Click here for an explanation of pseudo-MPECs

 
 Astrometry: 
     P21lca6  C2021 09 17elAstrometryI]redacted;$9iC0r,p+jYyhL2'u5/QL^3uTxA$5F52
     P21lca6  C2021 09 17y=$CMw)C\NV[\^)cYMYoSr\(L5IPJIGOFN)qbW'CN[W[oOb(DZD'F52
     P21lca6  C2021 09 17oH1@qYIq-)YkX:h,2$=nslV!jLVJq]t?Hnj'qaiaks3%O7vwdhS@F52
     P21lca6  C2021 09 17Xv]Q31p[%`=v!,vb.A\$.;S8*dZ^^mZPoGa?)@YFpZ,lvng2rONOF51
     P21lca6  C2021 09 17@0nHRmfgwclick548.=2Ahere=(U#NRq;fordDElJt24hg]uZ#b2F51
     P21lca6  C2021 10 03.27130401 13 07.02 +35 21 19.2    ~A377 21.11GVNEOCPG96
     P21lca6  C2021 10 03.27650701 13 06.81 +35 21 09.3    ~A377 20.96GVNEOCPG96
     P21lca6  C2021 10 03.28170901 13 06.57 +35 21 00.0    ~A377 20.83GVNEOCPG96
     P21lca6  C2021 10 04mPJ!H7w??RCn*ncIexplanation8.;](Q%oh)k;8m@n;WkZPCWD(F51

Station data:
(F51) Pan-STARRS 1, Haleakala  (N20.707235 W156.255910)  US/Hawaii.
   Observers N. Primak, A. Schultz, S. Watters, J. Thiel, T. Goggia. Measurer
   PS1 Science Consortium. 1.8-m Ritchey-Chrétien + CCD.
(F52) Pan-STARRS 2, Haleakala  (N20.707384 W156.255910)  US/Hawaii. 1.8-m
   Ritchey-Chrétien + CCD.
(G96) Mt. Lemmon Survey  (N32.442754 W110.788720)  US/Arizona.  Observers T.
   A. Pruyne, B. M. Africano, E. J. Christensen, G. A. Farneth, D. C. Fuls,
   A. R. Gibbs, A. D. Grauer, H. Gröller, J. A. Johnson, R. A. Kowalski, S.
   M. Larson, G. J. Leonard, D. Rankin, R. L. Seaman, F. C. Shelly. 1.5-m
   reflector + 10K CCD.

Orbital elements:  P21lca6
   Perihelion 2021 Jun 30.869059 +/- 0.118586 TT = 20:51:26 (JD 2459396.369059)
Epoch 2021 Oct  4.0 TT = JDT 2459491.5   Earth MOID: 0.5471   AutoNEOCP
M  34.41363579 +/- 0.1135987        (J2000 ecliptic)
n   0.36175018 +/- 0.00163197       Peri.   91.77947 +/- 0.3303442
a   1.95072869 +/- 0.00586631       Node   222.65838 +/- 0.1197572
e   0.3032018 +/- 0.000645872       Incl.   21.75874 +/- 0.1957812
P   2.72/995.14d           H 20.3   G  0.15   U  8.4  
q 1.35926407 +/- 0.00461913    Q 2.54219332 +/- 0.00731771
From 9 observations 2021 Sept. 17-Oct. 4; mean residual 0".13
Residuals in arcseconds: 
210917 F52  .02+  .05-    210917 F51  .04+  .05-    211003 G96  .12+  .20-    
210917 F52  .03+  .17+    210917 F51  .08-  .05-    211003 G96  .02-  .39+    
210917 F52  .00   .00     211003 G96  .10-  .19-    211004 F51  .00   .00     

Ephemerides (geocentric):
Date (UTC) HH   RA              Dec         delta   r     elong  mag " sig PA
---- -- -- --  -------------   -----------  ------ ------ -----  --- ---- ---
2021 10 06 01  01 11 20.159   +33 50 22.06  .60494 1.5556 150.6 21.1 .728  93
2021 10 06 02  01 11 18.542   +33 48 57.74  .60494 1.5557 150.7 21.1 .739  94
2021 10 06 03  01 11 16.924   +33 47 33.36  .60494 1.5558 150.7 21.1 .750  94
2021 10 06 04  01 11 15.305   +33 46 08.91  .60495 1.5560 150.8 21.1 .761  95
2021 10 06 05  01 11 13.687   +33 44 44.41  .60495 1.5561 150.8 21.1 .772  96
2021 10 06 06  01 11 12.068   +33 43 19.84  .60495 1.5563 150.9 21.1 .783  96
2021 10 06 07  01 11 10.450   +33 41 55.21  .60496 1.5564 150.9 21.1 .794  97
2021 10 06 08  01 11 08.831   +33 40 30.51  .60496 1.5566 150.9 21.1 .805  97
2021 10 06 09  01 11 07.212   +33 39 05.76  .60496 1.5567 151.0 21.1 .816  98
2021 10 06 10  01 11 05.593   +33 37 40.94  .60497 1.5569 151.0 21.1 .828  98
2021 10 06 11  01 11 03.973   +33 36 16.06  .60497 1.5570 151.1 21.1 .839  99
2021 10 06 12  01 11 02.354   +33 34 51.12  .60498 1.5572 151.1 21.1 .850  99
2021 10 06 13  01 11 00.734   +33 33 26.12  .60498 1.5573 151.2 21.1 .862 100
2021 10 06 14  01 10 59.115   +33 32 01.06  .60499 1.5574 151.2 21.1 .873 101
2021 10 06 15  01 10 57.495   +33 30 35.94  .60500 1.5576 151.3 21.1 .885 101
2021 10 06 16  01 10 55.875   +33 29 10.75  .60500 1.5577 151.3 21.1 .897 102
2021 10 06 17  01 10 54.255   +33 27 45.51  .60501 1.5579 151.4 21.1 .908 102
2021 10 06 18  01 10 52.636   +33 26 20.20  .60502 1.5580 151.4 21.1 .920 103
2021 10 06 19  01 10 51.016   +33 24 54.84  .60503 1.5582 151.5 21.1 .932 103
2021 10 06 20  01 10 49.396   +33 23 29.41  .60503 1.5583 151.5 21.1 .944 104
2021 10 06 21  01 10 47.776   +33 22 03.93  .60504 1.5585 151.5 21.1 .956 104
2021 10 06 22  01 10 46.156   +33 20 38.38  .60505 1.5586 151.6 21.1 .968 105
2021 10 06 23  01 10 44.536   +33 19 12.78  .60506 1.5588 151.6 21.1 .980 105
2021 10 07 00  01 10 42.916   +33 17 47.12  .60507 1.5589 151.7 21.1 0.99 106
2021 10 07 01  01 10 41.296   +33 16 21.39  .60508 1.5590 151.7 21.1 1.00 106
2021 10 07 02  01 10 39.676   +33 14 55.61  .60509 1.5592 151.8 21.1 1.02 107
2021 10 07 03  01 10 38.056   +33 13 29.77  .60510 1.5593 151.8 21.1 1.03 107
2021 10 07 04  01 10 36.436   +33 12 03.87  .60511 1.5595 151.9 21.1 1.04 108
2021 10 07 05  01 10 34.817   +33 10 37.91  .60513 1.5596 151.9 21.1 1.05 108
2021 10 07 06  01 10 33.197   +33 09 11.90  .60514 1.5598 152.0 21.1 1.07 109
2021 10 07 07  01 10 31.578   +33 07 45.83  .60515 1.5599 152.0 21.1 1.08 109
2021 10 07 08  01 10 29.958   +33 06 19.69  .60516 1.5601 152.1 21.1 1.09 110
2021 10 07 09  01 10 28.339   +33 04 53.50  .60518 1.5602 152.1 21.1 1.10 110
2021 10 07 10  01 10 26.720   +33 03 27.26  .60519 1.5604 152.1 21.1 1.12 111
2021 10 07 11  01 10 25.101   +33 02 00.95  .60520 1.5605 152.2 21.1 1.13 111
2021 10 07 12  01 10 23.482   +33 00 34.59  .60522 1.5607 152.2 21.1 1.14 111
2021 10 07 13  01 10 21.863   +32 59 08.17  .60523 1.5608 152.3 21.1 1.16 112
2021 10 07 14  01 10 20.244   +32 57 41.70  .60525 1.5609 152.3 21.1 1.17 112
2021 10 07 15  01 10 18.626   +32 56 15.16  .60526 1.5611 152.4 21.1 1.18 113
2021 10 07 16  01 10 17.008   +32 54 48.58  .60528 1.5612 152.4 21.1 1.20 113
2021 10 07 17  01 10 15.390   +32 53 21.93  .60529 1.5614 152.5 21.1 1.21 114
2021 10 07 18  01 10 13.772   +32 51 55.23  .60531 1.5615 152.5 21.1 1.22 114
2021 10 07 19  01 10 12.154   +32 50 28.47  .60533 1.5617 152.6 21.1 1.24 115
2021 10 07 20  01 10 10.537   +32 49 01.66  .60534 1.5618 152.6 21.1 1.25 115
2021 10 07 21  01 10 08.920   +32 47 34.79  .60536 1.5620 152.6 21.1 1.27 116
2021 10 07 22  01 10 07.303   +32 46 07.87  .60538 1.5621 152.7 21.1 1.28 116
2021 10 07 23  01 10 05.686   +32 44 40.89  .60540 1.5623 152.7 21.1 1.29 116
2021 10 08 00  01 10 04.070   +32 43 13.86  .60541 1.5624 152.8 21.1 1.31 117